Location: Quedlinburg
(51.7921°N, 11.1414°E)
Time: 13:11:09
(UTC+02:00)

RS-15 - Pass Details

Date: 17 March 2026
Orbit: 1893 x 2152 km, 64.8° (Epoch: 22 April)

Event Time Altitude Azimuth Distance (km) Brightness Sun altitude
Rises 19:28:07 0° 190° (S) 5,262 10.3 -10.8°
Reaches altitude 10° 19:31:27 10° 185° (S) 4,268 9.7 -11.3°
Maximum altitude 19:41:41 50° 115° (ESE) 2,326 8.0 -12.8°
Drops below altitude 10° 19:52:12 10° 45° (NE) 4,392 9.6 -14.4°
Sets 19:55:40 0° 40° (NE) 5,425 10.1 -14.9°
